Tracking 22287 objects as of 27-Jan-2021
HD Live streaming from Space Station
objects crossing your sky now

FENGYUN 1C DEB

Track FENGYUN 1C DEB now!
10-day predictions


NORAD ID: 32410
Int'l Code: 1999-025CZW
Perigee: 477.7 km
Apogee: 562.3 km
Inclination: 97.8 °
Period: 94.9 minutes
Semi major axis: 6890 km
RCS: 0.0096 m2 (small)
Launch date: May 10, 1999
Source: People's Republic of China (PRC)
Launch site: Taiyaun Space Center, China (TSC)

Note: This is SATELLITE DEBRIS
aabbcc
Your satellite tracking list
Your tracking list is empty




NASA's NSSDC Master Catalog

Two Line Element Set (TLE):
1 32410U 99025CZW 20360.48633607  .00023359  00000-0  11047-2 0  9990
2 32410  97.7946 240.5978 0061402  98.8128 262.0064 15.17684358705851
Source of the keplerian elements: AFSPC